Time,TemperatureF,DewpointF,PressureIn,WindDirection,WindDirectionDegrees,WindSpeedMPH,WindSpeedGustMPH,Humidity,HourlyPrecipIn,Conditions,Clouds,dailyrainin,SoftwareType,DateUTC
2013-01-25 00:03:00,20.1,10.6,30.28,SSE,162,0.0,0.0,66,0.00,,,0.00,Wunderground v.1.15,2013-01-25 06:03:00,
2013-01-25 00:09:00,20.2,11.0,30.28,SSE,161,0.0,0.0,67,0.00,,,0.00,Wunderground v.1.15,2013-01-25 06:09:00,
2013-01-25 00:15:00,20.2,11.0,30.27,SSE,165,0.0,0.0,67,0.00,,,0.00,Wunderground v.1.15,2013-01-25 06:15:00,
2013-01-25 00:20:00,20.3,11.1,30.26,SSE,157,0.0,0.0,67,0.00,,,0.00,Wunderground v.1.15,2013-01-25 06:20:00,
2013-01-25 00:25:00,20.3,11.1,30.26,South,170,0.0,0.0,67,0.00,,,0.00,Wunderground v.1.15,2013-01-25 06:25:00,
2013-01-25 00:33:00,20.4,11.2,30.25,South,169,0.0,0.0,67,0.00,,,0.00,Wunderground v.1.15,2013-01-25 06:33:00,
2013-01-25 00:39:00,20.5,11.6,30.25,SSE,155,0.0,0.0,68,0.00,,,0.00,Wunderground v.1.15,2013-01-25 06:39:00,
2013-01-25 00:44:00,20.6,11.7,30.25,SSE,160,0.0,0.0,68,0.00,,,0.00,Wunderground v.1.15,2013-01-25 06:44:00,
2013-01-25 00:50:00,20.7,11.8,30.26,SSE,162,0.0,0.0,68,0.00,,,0.00,Wunderground v.1.15,2013-01-25 06:50:00,
2013-01-25 00:55:00,20.8,11.6,30.26,South,174,0.0,0.0,67,0.00,,,0.00,Wunderground v.1.15,2013-01-25 06:55:00,
2013-01-25 01:00:00,20.8,11.9,30.26,South,175,0.0,0.0,68,0.00,,,0.00,Wunderground v.1.15,2013-01-25 07:00:00,
2013-01-25 01:06:00,20.9,12.0,30.26,SSE,163,0.0,0.0,68,0.00,,,0.00,Wunderground v.1.15,2013-01-25 07:06:00,
2013-01-25 01:14:00,20.9,12.0,30.26,South,175,0.0,0.0,68,0.00,,,0.00,Wunderground v.1.15,2013-01-25 07:14:00,
2013-01-25 01:19:00,20.9,12.0,30.25,South,170,0.0,0.0,68,0.00,,,0.00,Wunderground v.1.15,2013-01-25 07:19:00,
2013-01-25 01:24:00,20.8,11.9,30.25,South,175,0.0,0.0,68,0.00,,,0.00,Wunderground v.1.15,2013-01-25 07:24:00,
2013-01-25 01:30:00,20.9,12.0,30.25,South,179,0.0,0.0,68,0.00,,,0.00,Wunderground v.1.15,2013-01-25 07:30:00,
2013-01-25 01:36:00,20.9,12.3,30.24,South,175,0.0,0.0,69,0.00,,,0.00,Wunderground v.1.15,2013-01-25 07:36:00,
2013-01-25 01:42:00,20.9,12.3,30.24,SSE,161,0.0,0.0,69,0.00,,,0.00,Wunderground v.1.15,2013-01-25 07:42:00,
2013-01-25 01:48:00,20.9,12.3,30.24,South,173,0.0,0.0,69,0.00,,,0.00,Wunderground v.1.15,2013-01-25 07:48:00,
2013-01-25 01:54:00,20.9,12.3,30.24,South,173,0.0,0.0,69,0.00,,,0.00,Wunderground v.1.15,2013-01-25 07:54:00,
2013-01-25 02:00:00,20.9,12.3,30.23,South,184,0.0,0.0,69,0.00,,,0.00,Wunderground v.1.15,2013-01-25 08:00:00,
2013-01-25 02:05:00,20.9,12.3,30.24,South,171,0.0,0.0,69,0.00,,,0.00,Wunderground v.1.15,2013-01-25 08:05:00,
2013-01-25 02:10:00,21.0,12.4,30.23,South,173,0.0,0.0,69,0.00,,,0.00,Wunderground v.1.15,2013-01-25 08:10:00,
2013-01-25 02:15:00,21.0,12.4,30.22,South,176,0.0,0.0,69,0.00,,,0.00,Wunderground v.1.15,2013-01-25 08:15:00,
2013-01-25 02:20:00,21.0,12.4,30.22,South,177,0.0,0.0,69,0.00,,,0.00,Wunderground v.1.15,2013-01-25 08:20:00,
2013-01-25 02:25:00,21.1,12.5,30.21,South,175,0.0,0.0,69,0.00,,,0.00,Wunderground v.1.15,2013-01-25 08:25:00,
2013-01-25 02:30:00,21.1,12.5,30.21,SSE,165,0.0,0.0,69,0.00,,,0.00,Wunderground v.1.15,2013-01-25 08:30:00,
2013-01-25 02:35:00,21.1,12.8,30.20,SSE,167,0.0,0.0,70,0.00,,,0.00,Wunderground v.1.15,2013-01-25 08:35:00,
2013-01-25 02:40:00,21.0,12.4,30.19,SSE,168,0.0,0.0,69,0.00,,,0.00,Wunderground v.1.15,2013-01-25 08:40:00,
2013-01-25 02:45:00,21.0,12.7,30.18,SSE,161,0.0,0.0,70,0.00,,,0.00,Wunderground v.1.15,2013-01-25 08:45:00,
2013-01-25 02:50:00,21.1,12.5,30.16,SSE,166,0.0,0.0,69,0.00,,,0.00,Wunderground v.1.15,2013-01-25 08:50:00,
2013-01-25 02:55:00,21.1,12.5,30.19,SSE,167,0.0,0.0,69,0.00,,,0.00,Wunderground v.1.15,2013-01-25 08:55:00,
2013-01-25 03:00:00,21.1,12.5,30.20,South,183,0.0,0.0,69,0.00,,,0.00,Wunderground v.1.15,2013-01-25 09:00:00,
2013-01-25 03:05:00,21.2,12.6,30.21,SSW,194,0.0,0.0,69,0.00,,,0.00,Wunderground v.1.15,2013-01-25 09:05:00,
2013-01-25 03:11:00,21.2,12.6,30.21,SSW,205,0.0,0.0,69,0.00,,,0.00,Wunderground v.1.15,2013-01-25 09:11:00,
2013-01-25 03:15:00,21.2,12.6,30.21,SSW,200,0.0,0.0,69,0.00,,,0.00,Wunderground v.1.15,2013-01-25 09:15:00,
2013-01-25 03:21:00,21.2,12.6,30.20,SSW,192,0.0,2.0,69,0.00,,,0.00,Wunderground v.1.15,2013-01-25 09:21:00,
2013-01-25 03:26:00,21.1,12.5,30.20,SSW,200,0.0,5.0,69,0.00,,,0.00,Wunderground v.1.15,2013-01-25 09:26:00,
2013-01-25 03:32:00,21.1,12.5,30.21,SSW,201,0.0,0.0,69,0.00,,,0.00,Wunderground v.1.15,2013-01-25 09:32:00,
2013-01-25 03:37:00,21.1,12.5,30.21,SSW,205,0.0,0.0,69,0.00,,,0.00,Wunderground v.1.15,2013-01-25 09:37:00,
2013-01-25 03:42:00,21.0,12.7,30.21,SSW,205,0.0,0.0,70,0.00,,,0.00,Wunderground v.1.15,2013-01-25 09:42:00,
2013-01-25 03:47:00,21.0,12.7,30.21,SSW,205,0.0,0.0,70,0.00,,,0.00,Wunderground v.1.15,2013-01-25 09:47:00,
2013-01-25 03:52:00,20.9,12.6,30.20,SSW,205,0.0,0.0,70,0.00,,,0.00,Wunderground v.1.15,2013-01-25 09:52:00,
2013-01-25 03:57:00,20.9,12.6,30.20,SSW,206,0.0,0.0,70,0.00,,,0.00,Wunderground v.1.15,2013-01-25 09:57:00,
2013-01-25 04:03:00,20.9,12.6,30.20,SSW,206,0.0,0.0,70,0.00,,,0.00,Wunderground v.1.15,2013-01-25 10:03:00,
2013-01-25 04:08:00,20.9,12.6,30.20,SSW,206,0.0,0.0,70,0.00,,,0.00,Wunderground v.1.15,2013-01-25 10:08:00,
2013-01-25 04:13:00,20.9,12.6,30.19,SSW,209,0.0,0.0,70,0.00,,,0.00,Wunderground v.1.15,2013-01-25 10:13:00,
2013-01-25 04:18:00,20.9,12.6,30.19,SSW,209,0.0,0.0,70,0.00,,,0.00,Wunderground v.1.15,2013-01-25 10:18:00,
2013-01-25 04:23:00,20.9,12.6,30.18,SSW,209,0.0,0.0,70,0.00,,,0.00,Wunderground v.1.15,2013-01-25 10:23:00,
2013-01-25 04:28:00,20.9,12.6,30.17,SSW,209,0.0,0.0,70,0.00,,,0.00,Wunderground v.1.15,2013-01-25 10:28:00,
2013-01-25 04:33:00,21.0,12.4,30.17,SSW,209,0.0,0.0,69,0.00,,,0.00,Wunderground v.1.15,2013-01-25 10:33:00,
2013-01-25 04:38:00,21.0,12.4,30.17,SSW,206,0.0,0.0,69,0.00,,,0.00,Wunderground v.1.15,2013-01-25 10:38:00,
2013-01-25 04:43:00,21.1,12.2,30.16,SSW,213,0.0,0.0,68,0.00,,,0.00,Wunderground v.1.15,2013-01-25 10:43:00,
2013-01-25 04:48:00,21.1,12.2,30.15,SSW,211,6.0,7.0,68,0.00,,,0.00,Wunderground v.1.15,2013-01-25 10:48:00,
2013-01-25 04:54:00,21.1,12.2,30.15,SSW,195,7.0,7.0,68,0.00,,,0.00,Wunderground v.1.15,2013-01-25 10:54:00,
2013-01-25 04:59:00,21.1,12.2,30.14,SSW,202,4.0,9.0,68,0.00,,,0.00,Wunderground v.1.15,2013-01-25 10:59:00,
2013-01-25 05:04:00,21.2,12.3,30.15,SSW,205,0.0,8.0,68,0.00,,,0.00,Wunderground v.1.15,2013-01-25 11:04:00,
2013-01-25 05:09:00,21.2,11.9,30.15,SW,214,6.0,7.0,67,0.00,,,0.00,Wunderground v.1.15,2013-01-25 11:09:00,
2013-01-25 05:14:00,21.2,11.6,30.15,SW,227,7.0,7.0,66,0.00,,,0.00,Wunderground v.1.15,2013-01-25 11:14:00,
2013-01-25 05:19:00,21.3,11.7,30.16,SW,228,7.0,8.0,66,0.00,,,0.00,Wunderground v.1.15,2013-01-25 11:19:00,
2013-01-25 05:24:00,21.3,11.7,30.16,WSW,241,6.0,8.0,66,0.00,,,0.00,Wunderground v.1.15,2013-01-25 11:24:00,
2013-01-25 05:29:00,21.3,11.7,30.15,SW,235,5.0,8.0,66,0.00,,,0.00,Wunderground v.1.15,2013-01-25 11:29:00,
2013-01-25 05:34:00,21.3,11.7,30.15,SW,233,6.0,8.0,66,0.00,,,0.00,Wunderground v.1.15,2013-01-25 11:34:00,
2013-01-25 05:39:00,21.2,11.6,30.15,SW,228,6.0,8.0,66,0.00,,,0.00,Wunderground v.1.15,2013-01-25 11:39:00,
2013-01-25 05:45:00,21.3,11.7,30.15,SW,236,0.0,7.0,66,0.00,,,0.00,Wunderground v.1.15,2013-01-25 11:45:00,
2013-01-25 05:50:00,21.3,11.7,30.16,WSW,240,5.0,7.0,66,0.00,,,0.00,Wunderground v.1.15,2013-01-25 11:50:00,
2013-01-25 05:55:00,21.3,11.7,30.16,WSW,244,5.0,7.0,66,0.00,,,0.00,Wunderground v.1.15,2013-01-25 11:55:00,
2013-01-25 06:00:00,21.3,11.7,30.16,WSW,243,6.0,6.0,66,0.00,,,0.00,Wunderground v.1.15,2013-01-25 12:00:00,
2013-01-25 06:05:00,21.2,11.9,30.15,WSW,242,7.0,7.0,67,0.00,,,0.00,Wunderground v.1.15,2013-01-25 12:05:00,
2013-01-25 06:10:00,21.2,11.6,30.15,WSW,242,5.0,9.0,66,0.00,,,0.00,Wunderground v.1.15,2013-01-25 12:10:00,
2013-01-25 06:15:00,21.2,11.9,30.15,WSW,246,7.0,8.0,67,0.00,,,0.00,Wunderground v.1.15,2013-01-25 12:15:00,
2013-01-25 06:20:00,21.2,11.9,30.15,WSW,240,6.0,10.0,67,0.00,,,0.00,Wunderground v.1.15,2013-01-25 12:20:00,
2013-01-25 06:25:00,21.2,11.9,30.15,WSW,242,6.0,9.0,67,0.00,,,0.00,Wunderground v.1.15,2013-01-25 12:25:00,
2013-01-25 06:30:00,21.2,11.9,30.14,WSW,242,4.0,9.0,67,0.00,,,0.00,Wunderground v.1.15,2013-01-25 12:30:00,
2013-01-25 06:35:00,21.1,12.2,30.14,WSW,242,6.0,8.0,68,0.00,,,0.00,Wunderground v.1.15,2013-01-25 12:35:00,
2013-01-25 06:40:00,21.1,12.2,30.14,WSW,241,7.0,9.0,68,0.00,,,0.00,Wunderground v.1.15,2013-01-25 12:40:00,
2013-01-25 06:45:00,21.0,12.1,30.14,WSW,244,8.0,8.0,68,0.00,,,0.00,Wunderground v.1.15,2013-01-25 12:45:00,
2013-01-25 06:50:00,20.8,12.2,30.14,SW,232,5.0,8.0,69,0.00,,,0.00,Wunderground v.1.15,2013-01-25 12:50:00,
2013-01-25 06:55:00,20.3,11.7,30.14,SW,234,3.0,6.0,69,0.00,,,0.00,Wunderground v.1.15,2013-01-25 12:55:00,
2013-01-25 07:00:00,19.7,11.5,30.14,WSW,239,4.0,5.0,70,0.00,,,0.00,Wunderground v.1.15,2013-01-25 13:00:00,
2013-01-25 07:12:00,18.6,10.8,30.14,WSW,240,4.0,4.0,71,0.00,,,0.00,Wunderground v.1.15,2013-01-25 13:12:00,
2013-01-25 07:17:00,18.0,10.5,30.14,WSW,240,3.0,4.0,72,0.00,,,0.00,Wunderground v.1.15,2013-01-25 13:17:00,
2013-01-25 07:23:00,17.3,10.1,30.14,WSW,240,2.0,3.0,73,0.00,,,0.00,Wunderground v.1.15,2013-01-25 13:23:00,
2013-01-25 07:28:00,16.7,9.8,30.14,WSW,240,4.0,4.0,74,0.00,,,0.00,Wunderground v.1.15,2013-01-25 13:28:00,
2013-01-25 07:33:00,16.3,9.8,30.14,WSW,240,4.0,4.0,75,0.00,,,0.00,Wunderground v.1.15,2013-01-25 13:33:00,
2013-01-25 07:38:00,15.7,9.5,30.14,WSW,240,3.0,4.0,76,0.00,,,0.00,Wunderground v.1.15,2013-01-25 13:38:00,
2013-01-25 07:43:00,15.5,9.6,30.14,WSW,240,3.0,3.0,77,0.00,,,0.00,Wunderground v.1.15,2013-01-25 13:43:00,
2013-01-25 07:48:00,15.2,9.6,30.14,WSW,240,3.0,4.0,78,0.00,,,0.00,Wunderground v.1.15,2013-01-25 13:48:00,
2013-01-25 07:53:00,15.3,10.0,30.13,WSW,240,4.0,4.0,79,0.00,,,0.00,Wunderground v.1.15,2013-01-25 13:53:00,
2013-01-25 07:58:00,15.6,10.5,30.13,SW,234,5.0,5.0,80,0.00,,,0.00,Wunderground v.1.15,2013-01-25 13:58:00,
2013-01-25 08:13:00,17.6,12.5,30.12,SW,223,6.0,6.0,80,0.00,,,0.00,Wunderground v.1.15,2013-01-25 14:13:00,
2013-01-25 08:18:00,18.2,12.8,30.12,SW,227,6.0,9.0,79,0.00,,,0.00,Wunderground v.1.15,2013-01-25 14:18:00,
2013-01-25 08:23:00,18.8,13.4,30.12,SW,224,6.0,9.0,79,0.00,,,0.00,Wunderground v.1.15,2013-01-25 14:23:00,
2013-01-25 08:28:00,19.1,13.4,30.12,SW,231,9.0,11.0,78,0.00,,,0.00,Wunderground v.1.15,2013-01-25 14:28:00,
2013-01-25 08:33:00,19.5,13.8,30.11,SW,225,10.0,11.0,78,0.00,,,0.00,Wunderground v.1.15,2013-01-25 14:33:00,
2013-01-25 08:38:00,19.8,14.0,30.11,SW,223,8.0,13.0,78,0.00,,,0.00,Wunderground v.1.15,2013-01-25 14:38:00,
2013-01-25 08:53:00,20.6,14.5,30.10,WSW,238,8.0,11.0,77,0.00,,,0.00,Wunderground v.1.15,2013-01-25 14:53:00,
2013-01-25 08:58:00,20.9,14.8,30.11,WSW,238,14.0,15.0,77,0.00,,,0.00,Wunderground v.1.15,2013-01-25 14:58:00,
2013-01-25 09:10:00,21.5,14.8,30.11,WSW,252,13.0,14.0,75,0.00,,,0.00,Wunderground v.1.15,2013-01-25 15:10:00,
2013-01-25 09:16:00,21.8,15.1,30.11,WSW,238,12.0,13.0,75,0.00,,,0.00,Wunderground v.1.15,2013-01-25 15:16:00,
2013-01-25 09:21:00,22.0,14.7,30.12,WSW,253,12.0,16.0,73,0.00,,,0.00,Wunderground v.1.15,2013-01-25 15:21:00,
2013-01-25 09:26:00,22.3,14.6,30.12,WSW,242,14.0,18.0,72,0.00,,,0.00,Wunderground v.1.15,2013-01-25 15:26:00,
2013-01-25 09:31:00,22.5,14.5,30.12,West,275,14.0,18.0,71,0.00,,,0.00,Wunderground v.1.15,2013-01-25 15:31:00,
2013-01-25 09:36:00,22.9,14.6,30.12,West,265,15.0,17.0,70,0.00,,,0.00,Wunderground v.1.15,2013-01-25 15:36:00,
2013-01-25 09:43:00,23.2,14.5,30.12,WSW,258,13.0,13.0,69,0.00,,,0.00,Wunderground v.1.15,2013-01-25 15:43:00,
2013-01-25 09:48:00,23.6,14.2,30.12,West,261,14.0,19.0,67,0.00,,,0.00,Wunderground v.1.15,2013-01-25 15:48:00,
2013-01-25 10:03:00,24.7,14.9,30.12,West,261,15.0,15.0,66,0.00,,,0.00,Wunderground v.1.15,2013-01-25 16:03:00,
2013-01-25 10:08:00,24.7,14.6,30.12,West,273,13.0,19.0,65,0.00,,,0.00,Wunderground v.1.15,2013-01-25 16:08:00,
2013-01-25 10:23:00,25.4,14.9,30.11,West,265,16.0,16.0,64,0.00,,,0.00,Wunderground v.1.15,2013-01-25 16:23:00,
2013-01-25 10:28:00,25.5,14.6,30.11,West,267,14.0,18.0,63,0.00,,,0.00,Wunderground v.1.15,2013-01-25 16:28:00,
2013-01-25 10:33:00,25.8,15.3,30.11,WNW,285,15.0,19.0,64,0.00,,,0.00,Wunderground v.1.15,2013-01-25 16:33:00,
2013-01-25 10:39:00,25.9,15.0,30.11,WNW,289,18.0,22.0,63,0.00,,,0.00,Wunderground v.1.15,2013-01-25 16:39:00,
2013-01-25 10:44:00,26.1,14.8,30.11,West,278,12.0,14.0,62,0.00,,,0.00,Wunderground v.1.15,2013-01-25 16:44:00,
2013-01-25 10:49:00,26.6,15.3,30.11,WNW,289,12.0,17.0,62,0.00,,,0.00,Wunderground v.1.15,2013-01-25 16:49:00,
2013-01-25 11:01:00,27.3,15.6,30.11,WNW,300,14.0,17.0,61,0.00,,,0.00,Wunderground v.1.15,2013-01-25 17:01:00,
2013-01-25 11:06:00,27.6,15.5,30.10,West,277,14.0,17.0,60,0.00,,,0.00,Wunderground v.1.15,2013-01-25 17:06:00,
2013-01-25 11:11:00,27.8,15.7,30.10,WNW,300,18.0,20.0,60,0.00,,,0.00,Wunderground v.1.15,2013-01-25 17:11:00,
2013-01-25 11:16:00,27.8,15.3,30.10,West,281,12.0,19.0,59,0.00,,,0.00,Wunderground v.1.15,2013-01-25 17:16:00,
2013-01-25 11:21:00,27.9,15.4,30.10,WNW,287,18.0,23.0,59,0.00,,,0.00,Wunderground v.1.15,2013-01-25 17:21:00,
2013-01-25 11:26:00,28.0,15.9,30.10,West,281,15.0,18.0,60,0.00,,,0.00,Wunderground v.1.15,2013-01-25 17:26:00,
2013-01-25 11:51:00,28.5,16.0,30.09,WNW,298,14.0,20.0,59,0.00,,,0.00,Wunderground v.1.15,2013-01-25 17:51:00,
2013-01-25 12:03:00,29.1,16.9,30.08,WNW,302,20.0,20.0,60,0.00,,,0.00,Wunderground v.1.15,2013-01-25 18:03:00,
2013-01-25 12:08:00,29.0,17.2,30.08,NW,308,17.0,23.0,61,0.00,,,0.00,Wunderground v.1.15,2013-01-25 18:08:00,
2013-01-25 12:22:00,29.8,19.5,30.08,WNW,294,17.0,17.0,65,0.00,,,0.00,Wunderground v.1.15,2013-01-25 18:22:00,
2013-01-25 12:28:00,29.8,19.5,30.08,WNW,301,14.0,20.0,65,0.00,,,0.00,Wunderground v.1.15,2013-01-25 18:28:00,
2013-01-25 12:34:00,30.1,19.7,30.08,WNW,283,15.0,15.0,65,0.00,,,0.00,Wunderground v.1.15,2013-01-25 18:34:00,
2013-01-25 12:39:00,30.8,21.5,30.08,WNW,298,19.0,23.0,68,0.00,,,0.00,Wunderground v.1.15,2013-01-25 18:39:00,
2013-01-25 12:51:00,30.4,21.8,30.08,NW,311,14.0,25.0,70,0.00,,,0.00,Wunderground v.1.15,2013-01-25 18:51:00,
2013-01-25 13:03:00,30.4,21.8,30.08,WNW,299,20.0,20.0,70,0.00,,,0.00,Wunderground v.1.15,2013-01-25 19:03:00,
2013-01-25 13:08:00,30.5,21.9,30.08,WNW,293,19.0,26.0,70,0.00,,,0.00,Wunderground v.1.15,2013-01-25 19:08:00,
2013-01-25 13:13:00,30.6,21.6,30.08,WNW,300,19.0,21.0,69,0.00,,,0.00,Wunderground v.1.15,2013-01-25 19:13:00,
2013-01-25 13:18:00,30.7,22.1,30.08,NW,315,16.0,24.0,70,0.00,,,0.00,Wunderground v.1.15,2013-01-25 19:18:00,
2013-01-25 13:23:00,31.3,22.3,30.07,WNW,300,23.0,24.0,69,0.00,,,0.00,Wunderground v.1.15,2013-01-25 19:23:00,
2013-01-25 13:28:00,31.4,21.7,30.07,NW,311,16.0,24.0,67,0.00,,,0.00,Wunderground v.1.15,2013-01-25 19:28:00,
2013-01-25 13:33:00,31.5,21.4,30.07,WNW,298,23.0,25.0,66,0.00,,,0.00,Wunderground v.1.15,2013-01-25 19:33:00,
2013-01-25 13:38:00,31.5,21.1,30.08,NW,304,24.0,25.0,65,0.00,,,0.00,Wunderground v.1.15,2013-01-25 19:38:00,
2013-01-25 13:44:00,30.9,20.9,30.08,WNW,294,19.0,24.0,66,0.00,,,0.00,Wunderground v.1.15,2013-01-25 19:44:00,
2013-01-25 13:49:00,30.9,21.2,30.08,WNW,289,18.0,24.0,67,0.00,,,0.00,Wunderground v.1.15,2013-01-25 19:49:00,
2013-01-25 13:54:00,30.9,20.9,30.08,NW,304,17.0,25.0,66,0.00,,,0.00,Wunderground v.1.15,2013-01-25 19:54:00,
2013-01-25 13:59:00,31.1,21.4,30.08,NW,304,0.0,25.0,67,0.00,,,0.00,Wunderground v.1.15,2013-01-25 19:59:00,
2013-01-25 14:04:00,31.6,21.9,30.08,WNW,300,0.0,3.0,67,0.00,,,0.00,Wunderground v.1.15,2013-01-25 20:04:00,
2013-01-25 14:09:00,31.7,22.0,30.08,West,281,0.0,0.0,67,0.00,,,0.00,Wunderground v.1.15,2013-01-25 20:09:00,
2013-01-25 14:14:00,32.0,21.9,30.07,WNW,294,0.0,0.0,66,0.00,,,0.00,Wunderground v.1.15,2013-01-25 20:14:00,
2013-01-25 14:19:00,32.1,22.0,30.07,NW,306,0.0,0.0,66,0.00,,,0.00,Wunderground v.1.15,2013-01-25 20:19:00,
2013-01-25 14:24:00,32.3,22.2,30.07,WNW,297,0.0,0.0,66,0.00,,,0.00,Wunderground v.1.15,2013-01-25 20:24:00,
2013-01-25 14:29:00,32.4,21.9,30.07,WNW,300,14.0,28.0,65,0.00,,,0.00,Wunderground v.1.15,2013-01-25 20:29:00,
2013-01-25 14:40:00,32.5,21.7,30.07,WNW,292,16.0,23.0,64,0.00,,,0.00,Wunderground v.1.15,2013-01-25 20:40:00,
2013-01-25 14:52:00,33.3,22.4,30.07,WNW,294,24.0,24.0,64,0.00,,,0.00,Wunderground v.1.15,2013-01-25 20:52:00,
2013-01-25 14:58:00,33.0,22.1,30.07,WNW,292,21.0,29.0,64,0.00,,,0.00,Wunderground v.1.15,2013-01-25 20:58:00,
2013-01-25 15:03:00,33.1,21.9,30.07,West,279,23.0,23.0,63,0.00,,,0.00,Wunderground v.1.15,2013-01-25 21:03:00,
2013-01-25 15:08:00,33.1,22.2,30.08,NW,306,24.0,26.0,64,0.00,,,0.00,Wunderground v.1.15,2013-01-25 21:08:00,
2013-01-25 15:13:00,33.1,22.2,30.08,WNW,302,14.0,21.0,64,0.00,,,0.00,Wunderground v.1.15,2013-01-25 21:13:00,
2013-01-25 15:18:00,33.0,22.1,30.08,WNW,292,19.0,26.0,64,0.00,,,0.00,Wunderground v.1.15,2013-01-25 21:18:00,
2013-01-25 15:23:00,33.5,23.0,30.08,NW,307,21.0,27.0,65,0.00,,,0.00,Wunderground v.1.15,2013-01-25 21:23:00,
2013-01-25 15:28:00,33.5,22.2,30.08,NW,311,25.0,28.0,63,0.00,,,0.00,Wunderground v.1.15,2013-01-25 21:28:00,
2013-01-25 15:34:00,33.5,22.2,30.08,NW,313,16.0,20.0,63,0.00,,,0.00,Wunderground v.1.15,2013-01-25 21:34:00,
2013-01-25 15:39:00,33.5,22.2,30.08,WNW,299,21.0,33.0,63,0.00,,,0.00,Wunderground v.1.15,2013-01-25 21:39:00,
2013-01-25 15:44:00,33.4,22.1,30.08,NW,306,26.0,27.0,63,0.00,,,0.00,Wunderground v.1.15,2013-01-25 21:44:00,
2013-01-25 15:49:00,33.3,22.1,30.08,NW,323,16.0,29.0,63,0.00,,,0.00,Wunderground v.1.15,2013-01-25 21:49:00,
2013-01-25 15:54:00,33.2,22.3,30.08,NW,315,23.0,24.0,64,0.00,,,0.00,Wunderground v.1.15,2013-01-25 21:54:00,
2013-01-25 15:59:00,33.1,22.2,30.08,NW,304,24.0,26.0,64,0.00,,,0.00,Wunderground v.1.15,2013-01-25 21:59:00,
2013-01-25 16:04:00,33.0,22.1,30.08,NW,308,20.0,22.0,64,0.00,,,0.00,Wunderground v.1.15,2013-01-25 22:04:00,
2013-01-25 16:09:00,32.9,22.0,30.08,NW,312,17.0,23.0,64,0.00,,,0.00,Wunderground v.1.15,2013-01-25 22:09:00,
2013-01-25 16:14:00,32.8,22.0,30.08,NW,311,22.0,22.0,64,0.00,,,0.00,Wunderground v.1.15,2013-01-25 22:14:00,
2013-01-25 16:19:00,32.6,21.8,30.09,NW,322,20.0,24.0,64,0.00,,,0.00,Wunderground v.1.15,2013-01-25 22:19:00,
2013-01-25 16:24:00,32.4,21.6,30.09,NW,324,15.0,21.0,64,0.00,,,0.00,Wunderground v.1.15,2013-01-25 22:24:00,
2013-01-25 16:29:00,32.0,21.6,30.09,NNW,333,22.0,22.0,65,0.00,,,0.00,Wunderground v.1.15,2013-01-25 22:29:00,
2013-01-25 16:34:00,31.5,21.8,30.10,NW,323,14.0,20.0,67,0.00,,,0.00,Wunderground v.1.15,2013-01-25 22:34:00,
2013-01-25 16:39:00,31.2,21.5,30.10,NNW,329,13.0,20.0,67,0.00,,,0.00,Wunderground v.1.15,2013-01-25 22:39:00,
2013-01-25 16:45:00,30.5,20.8,30.10,NW,315,20.0,20.0,67,0.00,,,0.00,Wunderground v.1.15,2013-01-25 22:45:00,
2013-01-25 16:50:00,30.1,20.5,30.11,NW,324,17.0,22.0,67,0.00,,,0.00,Wunderground v.1.15,2013-01-25 22:50:00,
2013-01-25 16:55:00,29.4,19.8,30.11,NNW,339,18.0,19.0,67,0.00,,,0.00,Wunderground v.1.15,2013-01-25 22:55:00,
2013-01-25 17:00:00,29.0,19.1,30.11,North,350,16.0,16.0,66,0.00,,,0.00,Wunderground v.1.15,2013-01-25 23:00:00,
2013-01-25 17:05:00,28.0,18.1,30.11,NW,326,12.0,20.0,66,0.00,,,0.00,Wunderground v.1.15,2013-01-25 23:05:00,
2013-01-25 17:10:00,27.5,17.6,30.11,NW,317,16.0,18.0,66,0.00,,,0.00,Wunderground v.1.15,2013-01-25 23:10:00,
2013-01-25 17:15:00,27.1,17.6,30.12,NW,321,17.0,22.0,67,0.00,,,0.00,Wunderground v.1.15,2013-01-25 23:15:00,
2013-01-25 17:20:00,26.9,17.4,30.12,NW,320,18.0,22.0,67,0.00,,,0.00,Wunderground v.1.15,2013-01-25 23:20:00,
2013-01-25 17:25:00,26.5,17.0,30.13,NW,325,12.0,17.0,67,0.00,,,0.00,Wunderground v.1.15,2013-01-25 23:25:00,
2013-01-25 17:30:00,26.0,16.5,30.13,NNW,330,11.0,17.0,67,0.00,,,0.00,Wunderground v.1.15,2013-01-25 23:30:00,
2013-01-25 17:35:00,25.5,16.1,30.13,NNW,342,16.0,17.0,67,0.00,,,0.00,Wunderground v.1.15,2013-01-25 23:35:00,
2013-01-25 17:40:00,25.1,15.3,30.14,NW,325,16.0,19.0,66,0.00,,,0.00,Wunderground v.1.15,2013-01-25 23:40:00,
2013-01-25 17:45:00,24.8,15.4,30.14,NW,325,15.0,16.0,67,0.00,,,0.00,Wunderground v.1.15,2013-01-25 23:45:00,
2013-01-25 17:50:00,24.5,15.1,30.14,NNW,333,10.0,17.0,67,0.00,,,0.00,Wunderground v.1.15,2013-01-25 23:50:00,
2013-01-25 17:55:00,24.0,15.0,30.14,NNW,337,19.0,19.0,68,0.00,,,0.00,Wunderground v.1.15,2013-01-25 23:55:00,
2013-01-25 18:00:00,23.8,14.4,30.15,NNW,342,13.0,16.0,67,0.00,,,0.00,Wunderground v.1.15,2013-01-26 00:00:00,
2013-01-25 18:05:00,23.3,14.0,30.15,NNW,333,13.0,16.0,67,0.00,,,0.00,Wunderground v.1.15,2013-01-26 00:05:00,
2013-01-25 18:10:00,22.9,12.5,30.16,NNW,346,17.0,19.0,64,0.00,,,0.00,Wunderground v.1.15,2013-01-26 00:10:00,
2013-01-25 18:15:00,22.1,11.4,30.16,NNW,345,15.0,17.0,63,0.00,,,0.00,Wunderground v.1.15,2013-01-26 00:15:00,
2013-01-25 18:20:00,21.6,10.6,30.16,NNW,348,14.0,17.0,62,0.00,,,0.00,Wunderground v.1.15,2013-01-26 00:20:00,
2013-01-25 18:25:00,21.4,10.7,30.16,NNW,340,10.0,15.0,63,0.00,,,0.00,Wunderground v.1.15,2013-01-26 00:25:00,
2013-01-25 18:30:00,21.3,10.7,30.17,NNW,340,13.0,18.0,63,0.00,,,0.00,Wunderground v.1.15,2013-01-26 00:30:00,
2013-01-25 18:35:00,20.9,10.3,30.17,NNW,346,13.0,17.0,63,0.00,,,0.00,Wunderground v.1.15,2013-01-26 00:35:00,
2013-01-25 18:40:00,20.6,9.6,30.17,NNW,342,17.0,18.0,62,0.00,,,0.00,Wunderground v.1.15,2013-01-26 00:40:00,
2013-01-25 18:46:00,20.4,9.1,30.18,NNW,341,16.0,19.0,61,0.00,,,0.00,Wunderground v.1.15,2013-01-26 00:46:00,
2013-01-25 18:52:00,19.9,8.6,30.18,NNW,336,12.0,15.0,61,0.00,,,0.00,Wunderground v.1.15,2013-01-26 00:52:00,
2013-01-25 18:57:00,19.7,8.0,30.18,NNW,331,17.0,20.0,60,0.00,,,0.00,Wunderground v.1.15,2013-01-26 00:57:00,
2013-01-25 19:03:00,19.5,8.2,30.18,NNW,338,11.0,11.0,61,0.00,,,0.00,Wunderground v.1.15,2013-01-26 01:03:00,
2013-01-25 19:08:00,19.1,8.2,30.18,NNW,338,13.0,18.0,62,0.00,,,0.00,Wunderground v.1.15,2013-01-26 01:08:00,
2013-01-25 19:14:00,18.8,7.9,30.19,NNW,336,11.0,14.0,62,0.00,,,0.00,Wunderground v.1.15,2013-01-26 01:14:00,
2013-01-25 19:19:00,18.4,7.9,30.19,NNW,333,11.0,15.0,63,0.00,,,0.00,Wunderground v.1.15,2013-01-26 01:19:00,
2013-01-25 19:24:00,18.1,7.6,30.20,NNW,329,13.0,15.0,63,0.00,,,0.00,Wunderground v.1.15,2013-01-26 01:24:00,
2013-01-25 19:29:00,18.0,7.2,30.20,NNW,329,13.0,17.0,62,0.00,,,0.00,Wunderground v.1.15,2013-01-26 01:29:00,
2013-01-25 19:34:00,17.8,7.0,30.20,NNW,335,11.0,14.0,62,0.00,,,0.00,Wunderground v.1.15,2013-01-26 01:34:00,
2013-01-25 19:39:00,17.6,6.8,30.20,NNW,346,16.0,17.0,62,0.00,,,0.00,Wunderground v.1.15,2013-01-26 01:39:00,
2013-01-25 19:44:00,17.5,6.3,30.19,NNW,335,16.0,18.0,61,0.00,,,0.00,Wunderground v.1.15,2013-01-26 01:44:00,
2013-01-25 19:49:00,17.3,6.5,30.20,NNW,340,21.0,30.0,62,0.00,,,0.00,Wunderground v.1.15,2013-01-26 01:49:00,
2013-01-25 19:54:00,17.0,6.2,30.20,NNW,339,13.0,17.0,62,0.00,,,0.00,Wunderground v.1.15,2013-01-26 01:54:00,
2013-01-25 19:59:00,16.8,6.4,30.20,NNW,342,12.0,20.0,63,0.00,,,0.00,Wunderground v.1.15,2013-01-26 01:59:00,
2013-01-25 20:04:00,16.7,6.3,30.20,NNW,345,18.0,18.0,63,0.00,,,0.00,Wunderground v.1.15,2013-01-26 02:04:00,
2013-01-25 20:09:00,16.5,6.1,30.20,NNW,340,12.0,18.0,63,0.00,,,0.00,Wunderground v.1.15,2013-01-26 02:09:00,
2013-01-25 20:14:00,16.4,6.0,30.21,NNW,342,16.0,19.0,63,0.00,,,0.00,Wunderground v.1.15,2013-01-26 02:14:00,
2013-01-25 20:19:00,16.2,5.8,30.21,NNW,332,15.0,20.0,63,0.00,,,0.00,Wunderground v.1.15,2013-01-26 02:19:00,
2013-01-25 20:24:00,16.1,5.7,30.21,NNW,336,14.0,17.0,63,0.00,,,0.00,Wunderground v.1.15,2013-01-26 02:24:00,
2013-01-25 20:29:00,15.9,5.9,30.21,NNW,341,12.0,18.0,64,0.00,,,0.00,Wunderground v.1.15,2013-01-26 02:29:00,
2013-01-25 20:34:00,15.7,6.0,30.21,NW,326,16.0,16.0,65,0.00,,,0.00,Wunderground v.1.15,2013-01-26 02:34:00,
2013-01-25 20:39:00,15.5,5.8,30.22,NNW,336,12.0,17.0,65,0.00,,,0.00,Wunderground v.1.15,2013-01-26 02:39:00,
2013-01-25 20:44:00,15.4,5.7,30.23,NNW,329,14.0,15.0,65,0.00,,,0.00,Wunderground v.1.15,2013-01-26 02:44:00,
2013-01-25 20:49:00,15.3,6.0,30.23,NNW,336,15.0,17.0,66,0.00,,,0.00,Wunderground v.1.15,2013-01-26 02:49:00,
2013-01-25 20:54:00,15.2,5.9,30.23,NNW,327,14.0,17.0,66,0.00,,,0.00,Wunderground v.1.15,2013-01-26 02:54:00,
2013-01-25 20:59:00,15.1,5.8,30.23,NNW,330,14.0,17.0,66,0.00,,,0.00,Wunderground v.1.15,2013-01-26 02:59:00,
2013-01-25 21:04:00,14.9,5.9,30.24,NNW,338,13.0,13.0,67,0.00,,,0.00,Wunderground v.1.15,2013-01-26 03:04:00,
2013-01-25 21:09:00,14.8,5.8,30.24,NNW,336,12.0,16.0,67,0.00,,,0.00,Wunderground v.1.15,2013-01-26 03:09:00,
2013-01-25 21:14:00,14.6,6.0,30.24,NW,325,11.0,13.0,68,0.00,,,0.00,Wunderground v.1.15,2013-01-26 03:14:00,
2013-01-25 21:19:00,14.3,6.0,30.25,NNW,330,12.0,14.0,69,0.00,,,0.00,Wunderground v.1.15,2013-01-26 03:19:00,
2013-01-25 21:24:00,14.2,5.9,30.25,NNW,342,13.0,14.0,69,0.00,,,0.00,Wunderground v.1.15,2013-01-26 03:24:00,
2013-01-25 21:29:00,14.1,5.8,30.25,NNW,344,13.0,15.0,69,0.00,,,0.00,Wunderground v.1.15,2013-01-26 03:29:00,
2013-01-25 21:34:00,13.9,5.9,30.25,NNW,335,14.0,15.0,70,0.00,,,0.00,Wunderground v.1.15,2013-01-26 03:34:00,
2013-01-25 21:39:00,13.6,5.9,30.25,NNW,340,12.0,15.0,71,0.00,,,0.00,Wunderground v.1.15,2013-01-26 03:39:00,
2013-01-25 21:44:00,13.4,5.7,30.25,NNW,348,10.0,14.0,71,0.00,,,0.00,Wunderground v.1.15,2013-01-26 03:44:00,
2013-01-25 21:50:00,13.2,5.9,30.26,NNW,344,10.0,14.0,72,0.00,,,0.00,Wunderground v.1.15,2013-01-26 03:50:00,
2013-01-25 21:55:00,13.0,5.7,30.26,NNW,346,10.0,12.0,72,0.00,,,0.00,Wunderground v.1.15,2013-01-26 03:55:00,
2013-01-25 22:00:00,12.9,5.6,30.26,NNW,347,11.0,11.0,72,0.00,,,0.00,Wunderground v.1.15,2013-01-26 04:00:00,
2013-01-25 22:05:00,12.7,5.7,30.27,NNW,333,9.0,12.0,73,0.00,,,0.00,Wunderground v.1.15,2013-01-26 04:05:00,
2013-01-25 22:10:00,12.6,5.6,30.27,NNW,347,9.0,11.0,73,0.00,,,0.00,Wunderground v.1.15,2013-01-26 04:10:00,
2013-01-25 22:15:00,12.7,5.4,30.27,NNW,342,13.0,16.0,72,0.00,,,0.00,Wunderground v.1.15,2013-01-26 04:15:00,
2013-01-25 22:20:00,12.7,5.4,30.28,NNW,344,13.0,16.0,72,0.00,,,0.00,Wunderground v.1.15,2013-01-26 04:20:00,
2013-01-25 22:25:00,12.6,5.3,30.28,NNW,346,12.0,15.0,72,0.00,,,0.00,Wunderground v.1.15,2013-01-26 04:25:00,
2013-01-25 22:30:00,12.4,5.4,30.29,NNW,348,12.0,15.0,73,0.00,,,0.00,Wunderground v.1.15,2013-01-26 04:30:00,
2013-01-25 22:35:00,12.3,5.3,30.30,NNW,338,10.0,14.0,73,0.00,,,0.00,Wunderground v.1.15,2013-01-26 04:35:00,
2013-01-25 22:40:00,12.2,5.2,30.30,NNW,336,10.0,14.0,73,0.00,,,0.00,Wunderground v.1.15,2013-01-26 04:40:00,
2013-01-25 22:45:00,12.0,5.0,30.30,NNW,327,9.0,10.0,73,0.00,,,0.00,Wunderground v.1.15,2013-01-26 04:45:00,
2013-01-25 22:50:00,11.7,5.0,30.31,NNW,327,8.0,10.0,74,0.00,,,0.00,Wunderground v.1.15,2013-01-26 04:50:00,
2013-01-25 22:55:00,11.3,4.9,30.31,NNW,327,8.0,11.0,75,0.00,,,0.00,Wunderground v.1.15,2013-01-26 04:55:00,
2013-01-25 23:00:00,11.1,5.0,30.31,NNW,333,8.0,8.0,76,0.00,,,0.00,Wunderground v.1.15,2013-01-26 05:00:00,
2013-01-25 23:03:00,11.1,5.0,30.32,NNW,330,11.0,11.0,76,0.00,,,0.00,Wunderground v.1.15,2013-01-26 05:03:00,
2013-01-25 23:08:00,11.1,5.0,30.31,NNW,340,12.0,13.0,76,0.00,,,0.00,Wunderground v.1.15,2013-01-26 05:08:00,
2013-01-25 23:13:00,11.1,5.0,30.32,NNW,333,9.0,13.0,76,0.00,,,0.00,Wunderground v.1.15,2013-01-26 05:13:00,
2013-01-25 23:18:00,11.0,4.9,30.32,NNW,333,9.0,11.0,76,0.00,,,0.00,Wunderground v.1.15,2013-01-26 05:18:00,
2013-01-25 23:23:00,10.9,4.8,30.32,NNW,327,9.0,10.0,76,0.00,,,0.00,Wunderground v.1.15,2013-01-26 05:23:00,
2013-01-25 23:29:00,10.7,4.6,30.32,NNW,329,8.0,11.0,76,0.00,,,0.00,Wunderground v.1.15,2013-01-26 05:29:00,
2013-01-25 23:34:00,10.5,4.7,30.32,NNW,331,8.0,9.0,77,0.00,,,0.00,Wunderground v.1.15,2013-01-26 05:34:00,
2013-01-25 23:39:00,10.4,4.6,30.32,NNW,333,8.0,9.0,77,0.00,,,0.00,Wunderground v.1.15,2013-01-26 05:39:00,
2013-01-25 23:44:00,10.3,4.5,30.32,NNW,339,6.0,8.0,77,0.00,,,0.00,Wunderground v.1.15,2013-01-26 05:44:00,
2013-01-25 23:49:00,10.2,4.4,30.32,NNW,337,7.0,9.0,77,0.00,,,0.00,Wunderground v.1.15,2013-01-26 05:49:00,
2013-01-25 23:54:00,10.1,4.3,30.32,NNW,328,5.0,7.0,77,0.00,,,0.00,Wunderground v.1.15,2013-01-26 05:54:00,